NOAA NWS Hourly Roundups by Site

Regional Weather Roundup for Green Bay, WI

To Select Another Site Choose from List

Select Site:  

000
ASUS43 KGRB 051511
RWRGRB

NORTH-CENTRAL AND NORTHEAST WISCONSIN REGIONAL WEATHER ROUNDUP
NATIONAL WEATHER SERVICE GREEN BAY WI
1000 AM CDT SUN APR 05 2020

WIZ005-009-010>012-018-019-051600-
NORTH CENTRAL WISCONSIN

CITY           SKY/WX    TMP DP  RH WIND       PRES   REMARKS
IRONWOOD       FAIR      36  18  48 CALM      30.18S
MANITOWISH WTR FAIR      34  19  54 SE7       30.16F
ARBOR VITAE    FAIR      37  19  49 S7        30.17F
EAGLE RIVER    FAIR      35  13  40 SE7       30.18S
LAND O LAKES   FAIR      36  17  46 SE8       30.19F
RHINELANDER    FAIR      36  14  40 E5        30.19S
PHILLIPS       FAIR      38  16  40 SE6       30.16F
ANTIGO         FAIR      35  17  47 SE5       30.20S
TOMAHAWK       FAIR      37  17  43 CALM      30.19F
MERRILL        FAIR      38  22  50 S5        30.20F
$$

WIZ013-073-051600-
NORTHEAST WISCONSIN

CITY           SKY/WX    TMP DP  RH WIND       PRES   REMARKS
IRON MOUNTAIN  FAIR      36  19  50 SE6       30.21S
MARINETTE      FAIR      37  23  56 E5        30.26S
OCONTO         FAIR      37  28  71 NE5       30.25F
$$

WIZ017-030-035>037-045-051600-
CENTRAL WISCONSIN

CITY           SKY/WX    TMP DP  RH WIND       PRES   REMARKS
MEDFORD        FAIR      37  20  50 SE8       30.17F
WAUSAU         FAIR      36  26  67 SE7       30.20S
MOSINEE        MOSUNNY   34  28  80 SE7       30.22F
MARSHFIELD     PTSUNNY   32  29  88 SE10      30.19S
WISC RAPIDS    CLOUDY    33  31  92 SE9       30.23S FOG
STEVENS POINT  CLOUDY    31  30  95 SE8       30.23S
WAUPACA        PTSUNNY   38  31  76 MISG      30.25S
SHAWANO        CLOUDY    35  31  86 NE6       30.25S
CLINTONVILLE   PTSUNNY   37  29  73 SW3       30.24F
WAUTOMA        PTSUNNY   38  34  85 E7        30.25R
$$

WIZ038-039-048-051-051600-
FOX VALLEY

CITY           SKY/WX    TMP DP  RH WIND       PRES   REMARKS
NWS GREEN BAY  FAIR      37  29  72 S5        30.25S
APPLETON       PTSUNNY   34  27  75 CALM      30.22S
OSHKOSH        FAIR      37  30  75 E9        30.23F
FOND DU LAC    FAIR      37  31  78 VRB5      30.23F
$$

WIZ022-050-052-051600-
EAST CENTRAL WISCONSIN

CITY           SKY/WX    TMP DP  RH WIND       PRES   REMARKS
EPHRAIM        FAIR      35  26  68 CALM      30.23F
WASHINGTON ISL FAIR      32  29  89 W5        30.25S
STURGEON BAY   FAIR      36  26  67 N5        30.25S
MANITOWOC      PTSUNNY   37  29  72 VRB6      30.26S
SHEBOYGAN      FAIR      40  30  67 E10       30.24S
$$

LMZ563-521-522-541>543-051600-
LAKESHORE

STATION/POSITION TIME  TEMP    WIND        PRES    VSBY  WAVE
                       AIR SEA DIR/SP/G                  HT/PER
                 (UTC) (F)     (DEG/KT/KT) (MB)    (MI)  (FT/S)
SHEBOYGAN LKSHOR 1500   35      40/  7/  9   N/A
KEWAUNEE LKSHORE 1424   33      30/  3/  8 1023.9
NORTHPORT PIER   1440   32     300/  5/  6 1024.4S
SISTER BAY LKSHO 1458   37        CALM       N/A
MENOMINEE LKSHOR 1424   32 39   10/  4/  4 1024.1
$$


 

View Past Reports for Green Bay, WI.

Products Courtesy of NOAA-NWS
NWS Information Parsing Script by Ken True at Saratoga Weather - Script by SE Lincoln Weather.